Über Starlink 1465
Group: 3 satellites
Beschreibung wird geladen...
Live-Position
3D-Globus wird geladen...
Nächste Überflüge
Höhenverlauf
Altitude vs Time
uPlot chart will show altitude changes over time
Zweizeiliger Elementsatz
1 45731U 20038B 26035.33336806 .00145266 00000-0 30747-2 0 9998
2 45731 53.0545 22.5410 0001673 106.0613 2.6206 15.44123598 5757
Epoch: 4. Feb. 2026 •
Age: 5 hours
Aktueller Status
Höhe 452.6 km
Geschwindigkeit 7.64 km/s
Subsatellitenpunkt -51.56°S,
62.34°W
Startdatum 13. Juni 2020
Alter 5.6 years
Typ internet
Startgruppe
Falcon 9 •
Launch 8 •
19 satellites
Starlink 1471
45735
Starlink 1474 45738
Starlink 1480 45741
Starlink 1500 45744
Starlink 1504 45746
Starlink 1506 45747
Starlink 1464 45751
Starlink 1477 45754
Starlink 1478 45755
Starlink 1484 45756
Starlink 1493 45759
Starlink 1494 45760
Starlink 1502 45764
Starlink 1470 45772
Starlink 1482 45773
Starlink 1496 45780
Starlink 1497 45781
Starlink 1513 45786
Technische Details
Klassifizierung Payload
Masse 260.00 kg
Trockenmasse 248.00 kg
Gesamtmasse 260.00 kg
Länge 0.20 m
Durchmesser 2.80 m
Spannweite 9.00 m
Form Box + pan
Hersteller SPXS
Bus-Typ Starlink
Phasenstatus In Orbit
Besitzer/Staat SPXS/US
Große Konstellationen
Loading constellations...